Meriden, CT

3:20 PM EST on November 20, 2019 (GMT -0500)
Meriden Markham Municipal

Weather History for KMMK - October, 2019

Change the Weather History Date:

Saturday, October 19, 2019

  Actual Average (KOXC) Record (KOXC)
Temperature  
Mean Temperature 46 °F -  
Max Temperature 62 °F 55 °F 80 °F (2016)
Min Temperature 32 °F 38 °F 21 °F (2015)
Degree Days  
Heating Degree Days 18    
Moisture  
Dew Point 35 °F    
Average Humidity 73    
Maximum Humidity 96    
Minimum Humidity 35    
Precipitation  
Precipitation 0.00 in - - ()
Sea Level Pressure  
Sea Level Pressure 30.03 in    
Wind  
Wind Speed 2 mph (West)    
Max Wind Speed 8 mph    
Max Gust Speed -    
Visibility 10 miles    
Events      
Averages and records for this station are not official NWS values.
T = Trace of Precipitation, MM = Missing Value Source: NWS Daily Summary

Daily Weather History Graph

Daily Weather History Graph

Search for Another Location

Airport or City:

Astronomy

Oct. 19, 2019 Rise Set
Actual Time 7:07 AM EDT 6:04 PM EDT
Civil Twilight 6:39 AM EDT 6:32 PM EDT
Nautical Twilight 6:07 AM EDT 7:04 PM EDT
Astronomical Twilight 5:35 AM EDT 7:36 PM EDT
Moon 10:07 PM EDT (10/19) 12:40 PM EDT (10/19)
Length of Visible Light 11h 53m
Length of Day
10h 56m
Waning Gibbous, 70% of the Moon is Illuminated
Oct 19
Waning Gibbous
Oct 21
Last Quarter
Oct 27
New
Nov 4
First Quarter
Nov 12
Full

Hourly Weather History & Observations

Time (EDT) Temp. Windchill Dew Point Humidity Pressure Visibility Wind Dir Wind Speed Gust Speed Precip Events Conditions
12:53 AM 44.1 °F 42.5 °F 35.1 °F 71% 29.99 in 10.0 mi WNW 3.5 mph - N/A   Overcast
1:53 AM 39.0 °F - 35.1 °F 86% 30.01 in 10.0 mi Calm Calm - N/A   Clear
2:53 AM 37.0 °F - 34.0 °F 89% 30.02 in 10.0 mi Calm Calm - N/A   Clear
3:53 AM 35.1 °F - 34.0 °F 96% 30.01 in 10.0 mi Calm Calm - N/A   Clear
4:53 AM 33.1 °F - 30.9 °F 92% 30.02 in 10.0 mi Calm Calm - N/A   Clear
5:53 AM 32.0 °F - 30.9 °F 96% 30.03 in 8.0 mi Calm Calm - N/A   Clear
6:53 AM 32.0 °F - 30.9 °F 96% 30.04 in 10.0 mi Calm Calm - N/A   Clear
7:53 AM 33.1 °F - 32.0 °F 96% 30.06 in 10.0 mi Calm Calm - N/A   Clear
8:53 AM 39.0 °F - 36.0 °F 89% 30.07 in 10.0 mi Calm Calm - N/A   Clear
9:53 AM 48.0 °F - 37.0 °F 66% 30.07 in 10.0 mi Calm Calm - N/A   Clear
10:53 AM 50.0 °F - 36.0 °F 59% 30.06 in 10.0 mi West 3.5 mph - N/A   Clear
11:53 AM 54.0 °F - 37.0 °F 53% 30.06 in 10.0 mi Variable 5.8 mph - N/A   Clear
12:53 PM 57.0 °F - 36.0 °F 45% 30.03 in 10.0 mi West 8.1 mph - N/A   Clear
1:53 PM 59.0 °F - 36.0 °F 42% 30.01 in 10.0 mi WNW 5.8 mph - N/A   Clear
2:53 PM 60.1 °F - 35.1 °F 39% 30.00 in 10.0 mi WSW 6.9 mph - N/A   Clear
3:53 PM 61.0 °F - 33.1 °F 35% 30.00 in 10.0 mi SSW 8.1 mph - N/A   Clear
4:53 PM 60.1 °F - 34.0 °F 38% 30.00 in 10.0 mi West 5.8 mph - N/A   Clear
5:53 PM 52.0 °F - 39.9 °F 63% 30.01 in 10.0 mi Calm Calm - N/A   Clear
6:53 PM 48.0 °F - 39.9 °F 74% 30.01 in 10.0 mi Calm Calm - N/A   Clear
7:53 PM 44.1 °F - 37.9 °F 79% 30.03 in 10.0 mi Calm Calm - N/A   Clear
8:53 PM 42.1 °F - 37.9 °F 85% 30.04 in 10.0 mi Calm Calm - N/A   Clear
9:53 PM 41.0 °F - 37.0 °F 86% 30.06 in 10.0 mi Calm Calm - N/A   Clear
10:53 PM 39.9 °F - 37.9 °F 93% 30.06 in 10.0 mi Calm Calm - N/A   Clear
11:53 PM 39.0 °F - 37.0 °F 93% 30.06 in 10.0 mi Calm Calm - N/A   Clear